Location: Albany
(35.0170°S, 117.8920°E)
Time: 01:27:44
(UTC+08:00)

Explorer 7 - Pass Details

Date: 27 January 2021
Orbit: 484 x 677 km, 50.3° (Epoch: 01 March)

Event Time Altitude Azimuth Distance (km) Brightness Sun altitude
Rises 16:39:36 0° 266° (W) 3,039 11.8 30.9°
Reaches altitude 10° 16:42:34 10° 248° (WSW) 2,117 11.1 30.3°
Maximum altitude 16:46:09 20° 201° (SSW) 1,546 9.6 29.6°
Drops below altitude 10° 16:49:40 10° 154° (SSE) 2,069 9.6 28.9°
Sets 16:52:32 0° 136° (SE) 2,949 10.2 28.3°
